RH
82 67 53 42 47 61 67 57 49 59 74 78 74 76 75 70 62 59 64 70 72 75 80 81 78 78 75 71 63 47 41 50 67 79 84 87 87 87 88 85 87 90 88 89 89 87 88 88 89 89 88 89 90 90 89 89 90 90 89 92 92 91 91 89 88 88 85 83 85 87 88 87 88 90 89 89 87 84 85 84 86 87 83 83 86
75 67 59 44 36 45 57 52 49 57 72 81 81 83 84 78 65 64 73 77 77 77 81 82 80 78 75 70 56 41 43 59 77 84 87 88 86 88 86 80 84 90 90 91 90 90 90 89 90 89 88 87 87 88 88 88 90 90 89 90 87 87 87 86 86 85 82 81 83 88 90 86 86 90 88 87 84 83 85 84 82 81 80 84 86
72 71 63 45 34 39 47 44 49 62 79 90 91 90 90 86 69 68 79 81 80 81 83 84 83 79 75 68 50 40 48 66 82 87 88 87 86 85 85 84 86 89 90 91 91 92 92 91 88 88 91 90 87 88 89 87 91 90 88 89 88 88 87 86 85 83 82 80 76 81 89 87 87 90 89 86 83 82 83 80 78 78 82 87 89
72 69 64 48 37 45 53 55 68 79 87 93 92 91 91 85 71 72 82 83 82 83 84 85 84 80 76 63 49 45 54 75 85 87 89 89 87 85 88 90 88 89 90 92 92 92 93 93 89 87 90 90 80 78 92 93 94 94 89 90 91 92 89 87 84 78 76 73 67 69 76 84 90 91 89 86 84 84 80 78 81 86 88 90 91
68 65 63 52 46 56 60 67 84 88 88 89 89 89 88 82 75 78 82 84 84 84 84 86 83 80 75 61 54 53 62 82 89 90 91 92 89 87 91 91 89 89 90 92 91 92 92 90 90 90 88 89 71 58 80 94 97 97 92 91 92 93 90 89 86 77 75 72 67 65 66 79 92 92 91 90 89 86 81 81 86 89 90 91 92
67 65 60 49 51 58 56 64 80 84 87 88 88 89 87 82 80 81 85 85 84 85 85 86 83 79 74 66 62 61 70 85 90 90 90 94 90 88 92 91 89 89 90 92 91 91 92 88 88 91 88 87 77 61 65 80 92 95 94 95 96 95 91 92 92 85 84 82 77 70 69 83 94 93 92 93 90 87 85 83 85 88 87 87 88
72 66 56 45 51 55 52 57 67 77 88 90 88 91 89 82 81 82 85 86 83 85 85 85 84 81 78 71 62 60 77 87 89 87 88 93 88 88 92 92 90 91 91 91 92 91 91 84 78 82 86 86 79 71 65 69 80 85 88 93 96 97 95 93 92 90 88 85 82 77 77 85 91 92 91 91 92 90 89 85 83 84 83 86 88
82 66 51 44 50 54 52 52 57 67 82 89 89 93 90 81 82 83 84 87 85 86 86 84 83 84 76 57 49 61 82 88 89 87 87 90 88 88 91 92 90 92 92 90 90 91 90 74 62 64 70 74 64 58 63 71 78 80 79 80 86 90 93 91 89 93 90 84 81 80 81 83 84 88 90 90 93 92 91 90 86 83 82 87 87
86 65 52 47 48 51 50 48 49 58 77 89 94 94 91 84 84 85 85 85 84 85 85 83 83 86 69 45 55 77 86 88 89 88 86 87 88 88 90 92 90 91 91 91 90 91 87 64 53 52 52 59 54 50 56 64 71 72 70 68 72 74 78 81 83 89 89 86 82 79 82 85 85 88 92 92 94 94 92 89 85 82 82 85 84
85 68 60 54 51 58 55 52 53 60 78 89 95 92 89 88 86 86 86 84 80 82 83 83 85 87 70 54 76 89 85 89 88 87 87 88 88 87 90 92 91 91 90 91 91 91 82 58 51 50 49 54 53 53 53 56 60 61 62 62 66 67 70 76 78 79 82 88 86 77 76 81 78 80 92 94 92 94 91 86 83 82 83 82 81
84 75 77 71 66 73 65 59 61 64 75 83 90 90 89 87 85 85 84 84 80 81 81 83 86 90 77 65 84 89 84 89 85 86 88 89 88 87 89 91 93 91 90 92 90 92 79 57 51 48 49 54 53 54 54 56 57 58 61 62 64 66 72 78 76 73 76 86 87 74 69 72 70 74 89 94 91 91 90 88 88 87 85 82 82
88 88 92 88 82 84 73 65 66 68 75 83 88 88 91 86 82 81 80 83 82 83 82 83 87 91 82 65 80 89 85 86 83 86 86 87 87 88 89 89 93 91 91 90 89 92 74 55 53 47 47 51 53 54 55 56 57 58 60 61 63 65 70 74 72 73 75 80 82 73 68 70 75 82 88 91 88 87 87 85 89 89 84 86 88
94 94 94 95 88 83 78 73 71 71 77 84 86 87 90 84 80 78 78 81 81 86 85 84 86 89 80 61 74 89 86 86 85 87 86 87 87 89 90 89 91 91 92 89 90 88 66 54 55 49 47 49 52 54 55 57 57 57 58 60 62 64 66 69 72 75 75 76 78 72 65 63 74 85 84 83 83 85 83 77 85 88 84 88 88
95 93 91 92 83 76 76 73 69 69 75 79 81 83 82 80 80 79 80 81 82 87 86 84 86 86 73 62 77 87 87 88 85 87 87 87 88 89 90 89 89 90 93 91 89 79 60 55 55 51 49 48 51 53 54 55 55 55 56 59 62 65 63 68 76 76 76 77 73 63 54 53 70 84 80 78 79 80 78 75 83 86 83 85 85
93 87 83 78 71 74 75 71 70 70 75 78 77 78 76 79 82 81 81 82 84 86 86 84 86 81 63 66 83 85 87 88 84 87 85 84 86 86 88 88 89 89 90 91 85 68 57 57 54 52 50 48 50 52 53 53 54 54 55 57 60 64 63 68 77 77 76 73 65 53 44 52 72 84 81 78 76 75 75 77 81 83 83 84 86
86 79 75 74 69 74 78 78 84 82 80 80 77 78 77 81 80 79 80 82 85 85 87 85 87 76 58 71 87 86 88 87 85 86 84 81 80 83 85 85 87 85 85 89 83 67 59 58 55 53 50 48 48 49 50 51 53 54 54 55 57 62 64 67 72 75 71 63 58 49 45 60 78 84 83 80 76 74 77 81 82 82 85 86 89
76 73 74 82 79 79 83 82 90 87 80 78 76 79 81 80 78 79 80 81 84 85 87 87 88 74 63 78 87 86 87 86 87 85 84 79 76 77 79 83 84 83 87 89 81 72 65 59 58 55 50 49 48 47 48 49 52 53 51 53 56 62 67 67 63 64 62 56 54 48 46 60 78 86 84 82 79 78 81 84 83 83 85 87 89
74 76 76 88 86 84 87 84 87 82 77 77 75 81 82 79 80 82 82 84 86 87 88 89 87 73 72 84 84 85 86 87 87 83 82 78 72 70 73 82 84 83 89 87 77 75 71 61 59 56 51 49 49 49 48 48 50 50 50 53 58 62 70 72 62 55 57 55 50 47 46 51 67 85 85 83 84 81 81 83 82 84 86 87 88
82 84 84 93 89 83 86 86 86 80 76 77 78 83 81 80 83 83 85 88 88 89 89 89 86 72 74 84 83 85 87 88 87 83 80 75 70 69 70 72 74 78 88 85 70 72 73 63 60 57 53 49 48 49 48 49 48 48 50 52 56 62 67 71 63 53 53 54 48 46 49 46 54 77 88 84 84 81 79 82 83 84 86 87 86
90 88 88 92 90 83 79 81 79 73 74 77 81 84 81 80 81 82 85 88 88 90 90 88 83 71 71 81 85 86 89 91 88 84 81 76 70 72 71 59 56 62 83 91 64 60 71 63 60 57 54 49 46 47 47 48 48 48 50 50 53 62 63 62 63 56 51 53 49 46 50 50 46 64 84 84 81 81 81 83 84 85 86 86 86
93 89 89 89 94 89 75 70 69 69 74 79 81 83 84 84 83 83 85 89 88 88 91 87 79 72 72 81 88 89 92 95 90 87 85 82 74 74 70 56 51 48 73 96 63 51 65 62 60 58 55 51 46 45 46 45 46 46 46 49 55 63 64 60 61 57 52 52 50 47 53 55 47 52 72 84 84 83 84 84 83 85 87 85 85
93 90 91 92 98 94 76 64 68 76 80 81 80 82 87 88 88 86 87 90 87 87 90 86 75 72 77 85 92 91 94 95 92 90 87 86 79 75 70 55 53 47 61 84 62 50 59 60 61 57 54 52 47 44 43 43 44 45 46 53 59 63 68 67 62 56 53 53 50 50 55 56 51 55 70 82 85 86 86 84 82 84 88 88 86
95 92 90 92 96 95 81 67 74 84 83 82 82 83 87 89 90 90 90 89 88 89 88 82 73 71 81 88 90 90 92 93 90 89 86 86 82 76 70 56 52 49 55 71 65 55 55 59 62 56 54 52 48 43 43 47 48 51 54 56 60 61 66 70 65 58 55 54 53 52 53 52 52 61 77 84 85 88 87 83 83 85 89 90 85
91 89 87 89 93 95 86 78 80 81 82 84 85 86 88 89 91 91 89 89 91 92 86 78 72 73 80 83 84 86 88 91 89 89 87 87 85 79 72 59 52 49 57 70 67 58 55 60 61 55 52 51 48 45 47 54 55 57 58 58 59 61 63 67 66 61 58 57 55 53 52 52 50 55 71 84 87 87 84 83 86 86 90 90 84
87 88 91 88 91 92 85 85 84 80 83 85 86 90 91 90 91 90 86 88 91 90 83 74 72 75 76 74 78 85 88 90 90 91 92 90 88 85 77 60 51 48 52 62 59 56 58 60 60 55 51 49 48 45 48 56 59 60 60 59 59 61 61 64 68 65 61 59 57 56 53 52 50 50 61 75 85 85 81 84 87 86 90 90 86
88 89 91 87 88 89 85 88 86 83 88 87 86 92 94 91 90 87 84 88 90 87 81 76 75 76 73 71 78 86 89 89 89 91 92 92 89 86 79 59 49 46 45 51 53 56 58 56 57 54 47 43 44 42 46 55 59 59 59 61 60 61 62 62 67 67 63 61 58 56 53 51 48 50 58 70 85 84 80 86 87 87 91 91 89
89 88 87 86 87 88 88 90 88 85 89 89 87 93 97 90 86 85 84 87 89 87 82 79 80 78 76 77 80 85 87 87 86 88 90 91 89 84 76 57 45 43 41 42 43 47 49 48 48 45 40 37 38 37 41 52 58 58 58 60 60 61 62 60 64 65 64 62 58 55 51 49 45 45 46 58 84 87 83 89 87 89 92 91 90
87 87 84 86 87 86 87 90 89 86 88 88 86 94 98 92 87 85 84 86 87 85 81 81 87 89 87 84 83 82 82 84 81 84 88 90 88 83 74 58 45 41 41 44 43 43 44 46 41 36 35 31 31 32 37 47 53 55 54 58 60 60 62 59 59 61 62 61 58 57 50 45 42 39 32 37 71 87 86 91 89 91 91 89 88
85 84 82 85 84 83 86 88 88 88 87 85 86 92 96 92 88 86 85 88 87 79 76 86 95 96 93 90 87 83 81 84 81 81 87 91 88 83 74 58 48 42 43 52 56 55 57 58 48 37 38 37 37 40 43 49 52 53 52 55 58 59 60 57 57 59 60 59 57 58 50 42 37 36 31 27 54 81 88 90 91 94 90 86 87
80 80 81 82 83 83 86 86 87 88 87 86 86 89 91 89 87 85 84 88 85 75 77 91 98 95 93 92 89 84 82 83 82 81 86 90 88 84 74 63 57 52 52 58 61 63 63 63 58 51 52 53 53 54 56 56 56 56 53 54 57 60 60 56 56 57 58 58 57 59 52 41 35 34 34 29 43 71 86 85 87 95 87 79 81
76 79 80 79 81 82 85 86 87 88 87 87 86 86 87 86 87 87 86 87 81 77 85 93 95 96 94 91 87 84 82 80 79 82 84 86 88 85 76 68 66 64 63 62 62 63 62 61 61 60 61 61 59 60 59 55 54 57 55 55 57 57 56 55 56 55 57 57 57 60 52 40 35 33 33 31 33 49 65 69 75 87 83 76 75
77 73 74 77 80 82 84 86 87 88 88 87 85 84 84 84 89 90 88 88 80 78 87 88 90 95 94 91 86 82 79 77 78 82 85 87 88 85 78 71 67 67 66 64 61 62 63 62 61 61 61 61 62 63 57 49 52 57 55 55 56 54 53 55 56 55 56 58 57 60 56 46 39 34 32 32 31 31 38 48 61 73 75 80 83
75 69 71 76 79 81 84 85 86 88 89 87 84 83 82 84 90 90 89 89 83 80 83 81 82 88 92 92 86 79 75 75 78 80 85 89 86 84 81 73 68 68 67 64 62 61 63 63 61 62 62 62 64 65 59 54 56 57 55 55 55 56 56 56 57 57 57 58 59 60 60 55 49 42 36 34 35 33 32 38 50 63 71 81 92
73 72 73 75 78 82 85 86 87 89 89 87 84 82 82 87 91 90 90 90 86 83 81 79 80 81 84 89 85 79 75 75 76 76 80 84 84 85 80 70 67 71 70 67 66 64 63 63 61 62 62 62 62 61 60 59 59 58 58 57 56 57 58 58 58 59 59 60 61 62 63 62 59 53 46 42 39 38 38 40 45 54 64 75 86
71 72 72 73 76 79 85 88 89 92 92 89 86 83 83 90 93 91 90 90 87 85 83 80 80 77 77 82 81 79 78 76 75 74 74 75 81 84 76 68 70 74 69 65 65 63 61 59 60 60 60 60 59 59 59 58 59 59 59 58 57 56 56 58 59 60 61 61 64 65 65 67 66 61 55 52 48 43 42 46 52 58 63 67 69
69 69 71 74 76 77 82 88 91 96 97 94 90 86 86 91 93 91 90 89 87 86 83 79 77 75 75 79 80 79 78 76 73 73 72 71 75 78 72 68 69 68 62 59 60 60 58 56 59 61 60 60 61 61 59 59 60 59 58 58 59 58 56 57 60 61 61 63 65 67 69 69 70 68 64 60 58 54 50 50 56 61 66 69 68
68 68 71 74 77 79 82 86 91 98 100 98 94 89 87 89 90 89 89 89 89 87 84 80 76 75 77 79 80 79 78 74 71 73 72 70 73 73 67 61 60 62 59 56 58 57 56 56 59 63 62 61 62 61 61 62 61 60 60 59 57 56 55 57 60 62 63 65 67 69 70 69 69 71 70 68 66 64 61 59 57 56 57 59 64
68 68 69 70 74 77 82 87 90 96 100 100 95 88 86 87 86 87 90 93 93 90 88 85 78 75 78 79 79 78 75 71 70 72 72 71 73 72 67 59 57 64 62 57 58 57 58 58 58 62 64 63 62 62 64 64 63 62 60 59 56 53 54 56 59 63 66 67 70 70 68 68 70 71 73 74 74 72 70 68 65 62 60 56 56
70 70 70 71 74 76 81 87 91 96 100 100 96 91 90 90 88 90 94 97 96 92 90 87 80 77 80 80 78 75 71 68 68 70 73 74 73 71 70 65 62 67 65 59 61 60 60 60 58 60 63 63 63 62 65 67 67 67 66 67 65 60 56 56 61 67 68 66 68 71 70 68 69 72 74 74 74 74 74 74 71 66 65 64 63
73 73 75 75 77 79 85 91 94 98 100 100 99 97 96 95 92 95 99 100 99 96 93 88 83 81 82 81 78 73 70 68 69 71 74 76 73 72 74 73 69 71 68 61 61 60 59 59 58 59 60 61 63 62 65 70 71 74 76 74 74 73 65 57 60 68 71 68 67 69 71 71 70 71 72 70 70 71 72 74 74 73 70 67 67
80 77 79 80 81 83 88 95 98 99 100 100 100 100 98 96 95 98 100 100 100 99 98 93 88 85 84 81 77 74 71 69 71 73 75 76 75 75 76 76 75 76 71 64 64 63 59 57 57 59 61 59 61 61 64 72 76 79 81 80 79 81 78 69 67 72 74 72 68 67 69 71 72 71 69 68 69 69 70 69 68 73 75 72 68
87 82 80 83 86 87 89 94 99 100 100 100 100 100 98 95 95 99 100 100 100 100 99 96 91 89 87 83 76 73 74 73 77 79 76 75 75 75 77 76 74 75 75 70 70 68 63 61 59 60 63 61 60 61 64 72 80 82 84 89 87 81 80 79 80 81 81 78 73 70 69 70 70 70 69 68 67 67 68 68 67 69 71 72 71
86 85 82 85 91 94 93 95 100 100 100 100 99 98 98 95 95 99 100 100 100 99 99 98 95 92 90 88 79 76 79 80 83 84 78 73 71 73 78 77 72 73 76 74 75 73 68 66 64 63 65 65 64 65 68 73 79 81 83 90 91 84 80 80 81 82 84 84 81 75 71 68 67 67 67 64 63 66 69 70 69 69 70 72 74
89 92 89 89 93 95 96 97 100 100 99 99 97 96 98 98 98 100 100 100 100 100 100 100 99 95 92 90 85 82 84 82 82 85 81 73 69 73 81 82 75 74 78 80 81 78 72 69 70 70 68 67 69 72 73 74 75 77 82 92 96 89 84 85 84 83 88 89 83 78 70 64 63 63 62 60 61 68 72 72 72 71 73 74 76
90 92 89 87 88 92 94 96 98 99 98 95 95 97 99 100 100 100 100 100 100 100 100 100 100 98 94 90 86 84 85 82 80 84 85 77 73 81 89 88 82 80 81 84 87 84 77 72 72 74 72 67 68 72 74 75 75 74 78 90 96 92 92 93 84 79 86 89 83 80 76 70 67 65 63 62 66 71 70 68 69 71 73 75 76
88 87 86 83 83 86 91 95 98 99 96 90 93 97 98 100 100 100 100 100 100 100 100 100 100 98 93 88 85 85 85 82 79 81 84 81 82 91 93 86 81 80 78 79 86 88 83 77 74 75 75 71 69 72 73 75 78 77 75 79 81 83 89 90 84 80 84 86 81 80 79 76 75 74 71 69 70 71 69 65 68 72 75 76 76
84 86 88 88 85 84 88 93 97 98 94 90 94 99 98 100 100 100 100 100 100 100 100 100 97 92 89 86 84 84 84 81 79 80 82 83 87 94 94 86 78 77 77 77 84 90 86 80 77 78 78 76 74 73 72 73 78 80 80 78 75 76 78 81 87 88 88 88 84 83 83 81 81 80 76 74 73 72 71 71 73 76 78 78 78
80 87 91 92 90 85 85 90 95 97 93 90 96 100 99 100 100 100 100 100 100 100 100 100 96 90 88 85 83 82 81 79 78 78 80 82 87 92 92 88 82 80 82 82 85 90 88 83 82 82 82 81 79 77 75 74 76 79 82 82 81 83 83 84 87 86 91 95 91 88 87 86 87 85 79 77 75 74 74 75 78 78 80 80 79
75 82 88 91 92 89 87 90 94 97 93 91 96 99 99 100 99 99 100 100 100 99 99 99 96 92 88 84 81 80 79 79 78 78 77 79 84 89 89 87 84 84 86 86 88 92 90 84 82 82 83 83 82 83 81 78 77 78 81 84 86 90 92 93 91 88 93 96 93 94 93 93 94 85 79 78 74 74 73 75 80 80 80 80 78
75 77 82 89 93 93 92 93 94 97 96 93 94 97 98 100 99 99 99 100 100 98 97 97 95 92 87 83 80 78 77 78 78 78 77 78 82 86 86 85 82 83 86 87 88 92 89 83 81 80 81 82 81 83 84 82 83 82 82 82 85 93 98 100 99 94 94 94 94 97 93 93 94 81 75 77 75 75 73 73 77 76 77 78 77
77 77 80 85 90 94 95 95 95 97 98 96 94 94 96 98 98 97 97 97 98 97 95 94 93 90 86 81 78 77 78 79 80 81 81 82 83 82 83 84 82 81 85 85 86 89 87 82 81 81 82 82 81 82 83 84 88 89 89 84 81 86 90 92 94 90 93 96 96 98 92 88 91 83 75 75 74 76 73 70 72 72 74 77 77
Wind_Speed
20 20 20 19 15 12 12 11 12 13 14 14 14 13 12 13 14 14 13 13 13 13 13 13 13 13 12 13 13 14 15 15 16 16 15 15 15 16 16 15 14 14 14 13 13 13 13 13 12 12 12 12 12 12 13 14 15 15 14 14 15 16 16 17 17 17 16 16 16 16 16 15 14 15 16 15 14 14 15 16 15 14 14 13 13
22 21 20 21 18 15 14 12 13 13 13 13 14 13 12 12 14 14 13 13 12 13 13 13 12 12 12 12 13 13 14 15 16 15 15 15 15 16 15 15 14 14 13 13 13 13 12 12 12 13 13 12 13 13 13 14 14 15 14 14 15 15 15 16 16 16 16 15 16 17 17 15 15 15 15 14 13 14 15 15 14 13 13 13 13
20 21 20 21 19 16 16 14 14 14 12 12 12 12 11 12 14 14 13 12 12 12 12 12 12 12 12 12 12 13 14 14 15 14 15 15 15 15 16 16 15 14 14 13 13 13 12 12 11 12 12 12 13 14 14 14 14 14 14 14 14 14 15 16 16 15 15 15 15 16 17 16 15 15 15 14 14 15 14 13 12 13 13 13 14
19 20 20 19 18 16 16 15 14 14 13 12 12 11 11 11 13 13 12 12 12 12 12 12 12 11 12 12 12 12 13 14 14 14 15 15 15 16 16 17 15 14 14 13 13 12 11 11 11 10 11 11 12 13 15 17 15 13 14 14 13 13 14 16 16 15 14 14 14 14 15 16 15 14 15 15 15 14 13 13 13 13 13 13 13
19 20 20 19 18 16 16 15 14 13 14 13 13 12 12 12 12 12 12 12 12 12 11 12 11 11 11 12 12 12 13 14 14 14 15 15 15 16 16 17 16 15 14 13 12 11 10 10 9 9 10 10 11 13 15 17 15 13 14 14 12 13 15 16 15 15 14 14 13 13 14 15 15 14 14 15 15 14 14 14 13 13 13 12 12
21 21 20 20 18 17 16 15 15 14 14 14 14 14 13 13 12 11 11 11 11 11 11 11 11 11 11 12 11 11 13 13 14 14 15 14 14 16 16 16 15 15 14 13 11 10 8 8 8 8 9 9 9 11 13 14 13 13 15 15 12 12 14 15 15 15 14 13 12 12 14 15 15 14 14 15 15 14 14 14 13 12 11 11 11
21 20 19 20 18 17 16 16 16 14 15 15 15 14 14 14 13 12 11 10 10 10 10 11 10 11 11 11 10 12 13 13 14 15 15 14 14 15 16 16 15 15 14 12 11 9 8 7 7 7 8 8 8 10 13 13 12 12 13 14 12 11 11 13 13 12 12 12 11 12 13 14 15 14 13 15 15 14 14 13 12 11 10 10 10
20 20 19 19 18 17 16 16 15 14 15 15 15 15 15 15 14 12 11 11 10 10 10 10 10 10 10 10 12 14 13 13 15 16 15 14 14 14 15 15 14 14 13 12 10 8 7 7 7 7 8 8 10 12 13 12 11 11 10 11 11 10 8 8 7 6 10 11 9 12 12 13 14 14 12 13 14 14 14 13 12 10 9 9 9
20 20 19 18 18 17 15 15 14 14 14 14 15 15 14 15 14 12 12 11 10 9 9 10 10 10 11 12 14 14 13 13 15 15 15 14 14 14 14 14 14 14 12 11 10 7 6 7 8 8 9 10 11 13 13 12 11 10 9 9 9 8 6 5 3 3 9 10 8 10 12 14 14 14 12 12 14 14 13 12 11 10 8 8 8
18 19 17 17 17 16 15 14 14 13 13 14 14 14 14 14 14 13 12 12 11 9 9 10 10 11 11 12 13 13 12 14 16 15 14 14 13 13 13 13 13 13 12 11 10 7 5 7 9 8 10 11 12 12 12 12 11 10 9 8 7 5 4 3 4 7 10 10 8 9 12 13 12 12 12 12 13 13 12 10 9 10 9 8 8
18 17 15 14 15 15 14 14 13 13 13 14 13 14 14 14 14 13 12 11 11 10 10 10 10 11 11 11 12 12 12 14 16 15 14 14 13 13 12 13 12 12 12 11 10 7 5 7 9 9 10 11 11 11 11 10 10 9 7 6 6 5 5 4 6 9 11 12 11 10 12 11 10 10 12 13 13 12 11 9 10 10 10 9 8
19 16 13 12 13 13 13 13 13 13 13 13 13 14 14 14 14 13 12 11 11 11 11 11 11 11 10 11 12 12 13 15 16 14 14 13 13 12 12 12 12 12 11 10 9 7 6 7 8 8 10 10 10 10 10 9 8 7 6 6 6 8 6 7 8 10 11 13 12 11 11 10 10 11 11 13 12 11 10 9 10 10 9 9 8
19 16 13 11 12 12 12 13 12 13 13 13 14 14 14 14 13 13 13 12 12 11 12 12 12 11 10 11 13 12 13 15 16 14 14 13 12 12 11 11 11 12 10 10 9 7 7 7 7 7 9 10 10 9 8 7 6 6 6 6 7 10 7 8 10 11 12 12 12 11 9 8 11 12 11 12 11 10 9 8 9 9 9 8 8
18 16 13 11 13 13 13 14 14 15 15 15 14 14 14 14 14 14 13 14 13 12 13 13 13 13 11 13 14 13 14 15 15 14 13 12 12 11 11 10 11 11 10 9 8 7 8 7 7 7 7 9 9 8 7 6 5 6 6 5 9 11 7 9 12 13 12 11 11 9 6 6 11 13 12 11 10 9 8 9 9 9 9 8 7
18 18 18 18 20 20 19 18 17 17 17 16 15 15 15 15 15 15 15 14 13 13 13 13 15 14 13 14 15 14 14 15 15 14 13 13 12 11 11 10 10 11 11 8 7 7 8 7 7 7 7 8 9 7 6 5 4 4 4 5 9 10 8 11 14 14 12 11 10 7 5 7 11 12 12 11 10 8 8 10 9 9 9 8 7
19 22 25 25 25 25 22 19 18 17 17 16 16 16 17 17 17 17 16 15 13 13 14 14 16 15 15 16 15 15 15 15 15 14 14 13 12 11 11 10 10 11 11 8 7 7 7 7 7 6 7 7 7 6 5 4 4 3 2 4 8 9 8 9 14 14 12 10 9 6 5 8 12 12 11 10 10 9 9 10 9 9 8 7 7
24 26 26 23 23 23 21 19 19 17 18 18 17 18 18 18 17 17 16 15 14 13 14 16 16 15 15 16 15 16 15 15 14 14 14 13 12 11 11 10 11 11 10 10 10 8 7 6 6 6 7 6 6 4 4 4 4 2 2 4 7 8 8 5 11 13 11 9 7 5 5 8 12 12 10 9 10 10 10 9 8 8 8 8 7
26 24 23 22 21 22 21 21 20 20 20 20 19 19 18 18 17 17 16 15 14 13 15 17 17 15 15 16 15 16 16 15 14 14 13 12 11 10 10 10 11 11 11 12 12 10 8 7 6 6 6 6 5 4 3 3 3 2 2 3 6 7 8 3 7 11 11 8 6 5 4 7 10 11 11 10 10 10 10 8 8 8 7 7 7
23 21 22 22 22 23 23 22 22 22 21 21 19 18 18 18 18 17 16 16 15 15 17 18 17 16 16 16 16 16 16 15 14 13 13 12 11 9 9 9 9 11 11 11 12 12 9 7 6 6 6 6 5 3 3 2 2 2 1 2 6 8 8 2 6 10 12 9 6 5 4 6 8 11 11 11 10 10 9 9 8 8 7 6 6
21 21 23 23 23 23 24 23 23 23 22 21 19 18 17 17 17 17 17 17 16 17 19 19 18 16 16 16 15 15 15 14 13 13 12 12 11 9 8 8 8 10 11 10 11 13 11 9 7 6 5 5 4 3 3 2 2 2 1 2 6 7 8 3 6 9 11 9 5 4 3 4 6 10 12 11 11 10 9 9 8 7 8 6 5
21 22 23 23 23 23 24 24 24 23 22 21 20 19 18 17 17 16 16 17 17 18 19 19 18 17 16 16 15 16 16 15 14 13 12 12 11 9 7 7 7 8 11 12 12 13 12 10 8 7 6 5 4 3 3 3 3 2 0 2 5 5 7 4 4 8 11 9 5 4 4 4 5 8 12 12 11 10 10 9 8 7 8 7 5
22 21 22 24 22 22 24 24 24 23 22 21 20 19 18 17 17 17 17 17 17 18 19 18 18 18 17 17 16 17 17 16 15 13 12 12 11 9 7 6 7 7 10 13 12 14 13 11 10 8 6 5 5 3 3 3 3 2 0 2 3 3 6 5 2 6 9 7 4 4 4 4 4 7 11 12 11 10 9 9 9 8 8 7 5
23 22 24 25 24 23 23 24 24 23 21 20 20 19 18 18 18 18 17 17 18 19 19 19 19 19 19 18 17 17 17 17 15 14 12 12 11 10 8 6 6 6 8 11 11 13 13 12 11 9 7 6 6 4 3 4 4 3 2 2 2 3 5 5 1 6 7 5 3 3 4 5 6 7 11 12 11 10 10 9 10 8 8 6 6
26 25 25 25 25 24 23 22 22 24 22 20 20 19 19 19 18 18 18 18 19 19 20 20 19 20 19 18 16 16 16 16 15 13 12 12 11 10 9 7 7 6 7 9 11 12 13 13 11 9 9 7 7 6 5 4 4 2 1 2 1 3 3 4 2 5 7 5 3 3 4 6 7 9 11 13 12 11 10 9 10 9 8 6 5
27 26 24 26 27 26 24 22 22 24 23 21 21 20 20 19 19 19 18 19 20 20 21 21 20 20 18 17 16 16 16 16 15 14 13 13 12 12 10 9 8 7 8 9 11 13 13 13 11 10 9 8 8 8 7 5 4 3 3 1 0 3 4 4 4 5 8 5 3 3 4 6 7 9 10 12 12 11 9 9 9 8 8 7 6
25 25 24 26 28 27 25 23 24 25 23 21 21 20 20 20 20 19 18 19 20 21 22 21 21 19 18 17 16 16 16 16 15 15 15 15 14 13 11 9 9 8 8 10 11 13 13 12 11 9 9 9 9 9 9 8 7 5 6 5 3 4 6 6 6 7 8 6 2 2 3 4 6 8 10 11 12 11 9 8 8 8 8 7 7
24 25 25 25 27 28 27 26 25 25 24 22 21 21 21 21 20 19 19 19 20 21 22 21 20 18 16 17 17 16 16 16 17 17 16 16 15 13 11 10 9 9 9 9 10 11 11 11 11 11 10 11 10 10 11 11 10 8 8 9 7 7 8 8 9 9 9 5 2 2 3 3 5 8 10 10 11 11 9 8 8 9 8 8 7
23 24 25 24 26 29 28 28 26 25 24 23 22 23 23 22 21 20 20 20 20 21 22 21 19 17 16 16 17 16 17 17 18 18 17 17 16 14 11 10 10 10 9 8 9 9 9 10 11 11 11 11 12 12 13 13 13 11 11 11 9 8 8 9 9 9 9 6 4 4 4 3 4 8 10 10 11 12 10 9 9 10 9 8 8
22 23 25 24 25 27 29 29 27 25 25 23 23 23 24 23 21 20 20 21 21 22 23 22 19 18 17 17 16 16 17 17 17 17 17 17 16 14 11 10 11 11 10 9 8 8 7 8 9 10 11 11 11 12 12 13 13 12 12 12 11 9 9 8 7 8 9 6 5 4 4 3 4 7 10 10 11 12 11 10 10 10 9 9 9
25 24 25 25 25 27 28 29 28 26 26 25 24 24 24 23 22 21 21 22 22 23 23 23 21 19 18 17 16 16 16 16 16 16 17 17 16 15 12 10 11 12 12 10 9 8 7 6 8 9 10 11 10 11 13 15 15 15 14 13 12 12 11 9 7 7 8 6 5 4 3 3 3 5 9 10 11 11 12 12 11 11 10 9 9
25 25 26 25 25 27 28 28 28 27 27 26 25 25 24 23 24 23 22 23 24 24 23 23 22 20 19 18 17 16 15 15 15 16 17 17 17 16 13 11 12 12 13 11 9 9 8 7 8 9 10 10 9 12 14 13 14 14 12 10 8 10 11 10 8 7 7 7 6 5 3 3 3 4 7 9 10 12 12 12 12 12 12 10 9
25 25 25 26 26 28 28 28 28 27 27 27 26 26 25 25 25 25 24 25 25 25 24 23 24 23 21 19 18 17 15 15 15 16 17 17 17 16 14 12 12 12 12 11 10 10 10 8 7 8 8 8 8 7 5 6 8 7 8 5 3 5 8 9 9 8 8 8 7 6 5 4 4 4 5 8 10 11 12 13 13 13 12 11 10
25 23 24 27 27 28 28 28 28 27 27 28 27 27 27 27 27 26 26 27 26 26 26 24 24 25 24 21 19 17 16 16 15 16 17 17 16 15 14 14 14 14 13 13 12 11 10 9 6 5 5 5 6 2 3 6 7 8 7 4 1 2 5 8 9 7 7 8 8 7 6 5 5 5 5 6 8 10 11 12 12 13 12 12 12
25 24 25 28 28 29 29 29 29 29 29 29 28 28 28 28 28 27 28 28 28 27 26 25 24 26 26 24 21 19 18 17 16 16 16 16 14 13 13 14 15 15 15 15 16 15 13 11 8 6 5 5 5 3 1 3 4 4 4 3 3 2 3 6 6 5 6 7 8 7 7 7 7 7 6 6 7 9 10 11 11 12 12 12 12
25 25 26 27 29 30 30 31 30 30 30 29 29 28 28 28 28 28 28 28 27 25 24 24 25 26 27 26 24 22 20 18 16 16 17 16 16 13 11 12 13 13 12 13 16 16 14 12 9 7 6 5 4 4 4 3 2 2 2 2 4 5 4 4 4 4 4 6 7 7 7 8 9 8 7 7 8 9 10 11 12 12 12 12 12
27 26 26 27 29 30 31 32 31 31 30 29 29 28 28 28 29 28 26 26 25 24 24 23 24 26 27 26 25 24 22 19 17 17 18 19 18 15 13 14 14 13 10 10 14 16 13 11 9 6 7 7 5 5 4 4 4 4 5 5 5 5 5 4 4 5 5 6 7 8 8 9 10 10 9 9 8 9 10 11 12 13 13 13 13
28 26 27 28 29 29 30 32 32 32 30 29 28 27 28 28 28 27 25 25 24 24 23 22 23 26 27 26 26 25 23 20 18 17 19 21 20 18 15 15 15 12 10 9 13 16 14 12 10 8 7 7 5 5 5 4 5 5 6 6 5 5 5 4 5 5 6 7 7 7 8 8 10 11 12 11 10 9 9 10 10 11 12 13 13
29 27 27 27 28 29 29 31 32 32 30 30 29 28 28 27 26 26 26 25 24 23 22 21 23 26 27 27 27 26 24 21 19 18 19 21 21 19 17 16 15 10 8 8 11 14 14 13 12 10 8 6 4 4 3 4 5 5 6 5 5 5 5 5 5 6 7 8 8 7 7 7 8 11 13 13 12 11 11 11 10 10 10 11 12
30 29 28 27 27 29 29 29 30 30 29 29 28 27 26 26 25 26 26 25 24 23 22 21 22 25 26 27 27 26 25 22 20 18 18 20 19 19 18 16 15 11 9 10 11 13 14 12 11 11 10 8 5 4 3 4 5 5 5 5 4 4 4 5 5 6 7 9 10 8 6 7 8 11 14 14 13 13 13 13 13 13 11 10 10
31 30 30 30 30 29 29 29 29 29 28 27 26 26 24 24 24 25 25 25 25 23 23 22 22 25 26 26 26 25 25 22 20 19 19 20 19 19 17 15 15 12 10 12 13 13 13 13 11 10 12 12 9 6 3 4 6 5 4 4 4 5 6 6 5 6 7 8 9 8 7 7 8 11 13 14 13 14 14 15 15 15 14 12 12
31 32 31 32 31 31 30 29 30 30 29 27 26 25 25 24 24 26 26 26 26 24 23 23 23 24 26 26 25 23 23 22 21 20 20 19 19 18 16 14 14 13 12 12 11 11 12 13 11 10 13 14 12 9 6 6 7 6 4 4 6 7 7 7 7 7 7 8 9 9 9 9 9 11 11 12 13 15 15 15 15 15 15 14 13
32 34 33 33 32 31 31 31 31 30 30 30 28 26 27 27 25 27 27 26 26 25 23 25 25 25 26 27 25 23 22 22 22 21 20 19 18 17 15 14 15 14 14 13 10 10 12 12 11 11 13 15 13 10 9 8 7 5 4 2 3 5 7 8 9 8 8 9 9 9 10 10 11 12 11 11 13 15 16 15 13 13 13 12 12
33 34 34 33 32 32 32 32 32 32 31 30 29 28 28 28 26 26 27 25 24 24 23 24 25 25 26 27 26 23 22 22 22 22 20 19 18 16 14 14 15 15 15 14 12 10 11 12 11 11 13 14 13 12 11 9 8 6 3 1 1 1 3 5 8 9 10 10 10 10 11 12 13 13 12 12 13 15 16 15 12 12 12 11 9
30 32 32 33 33 33 33 33 33 32 31 30 30 29 27 25 24 25 25 24 23 24 23 23 23 24 25 26 26 24 22 22 23 22 21 18 18 17 14 13 15 14 13 14 14 13 13 13 11 11 14 15 12 11 11 10 10 7 3 1 1 1 1 3 3 5 8 8 8 9 11 13 13 14 13 12 13 13 13 12 11 11 11 8 7
29 32 34 35 35 35 35 34 33 33 32 30 29 29 25 22 21 20 21 21 20 22 22 21 21 22 24 25 25 24 22 22 23 23 21 19 17 15 12 13 14 13 13 14 14 15 15 15 14 12 14 17 14 12 12 11 11 10 6 3 2 1 2 3 1 2 4 5 6 7 10 12 13 13 13 11 10 10 10 9 9 9 8 6 4
30 33 34 35 35 35 35 33 33 32 32 30 29 28 26 24 22 20 20 20 19 21 23 23 23 23 23 24 24 23 22 21 22 23 21 19 17 14 13 15 15 15 16 16 16 17 18 18 17 16 15 17 16 14 13 11 10 11 11 8 5 3 2 2 0 1 2 3 4 6 8 10 11 11 11 9 8 8 7 6 5 6 5 4 3
28 30 31 32 32 33 33 33 32 32 31 30 29 28 26 26 25 23 23 22 20 22 23 24 24 24 23 23 23 22 21 20 21 22 20 19 17 16 16 16 16 16 16 17 17 18 19 19 19 18 17 17 16 15 14 13 10 10 11 12 10 7 4 2 2 1 1 2 3 5 7 8 8 9 9 9 8 7 6 4 3 3 2 2 2
26 27 28 29 30 31 32 32 31 31 31 31 30 29 28 27 27 25 24 23 23 22 23 24 23 23 22 23 23 22 21 20 21 21 20 19 18 18 18 17 17 17 17 17 18 18 19 19 19 18 18 17 17 17 16 14 13 11 10 12 12 10 7 5 4 3 2 1 2 4 6 7 8 8 8 8 7 6 5 3 2 3 3 3 2
26 27 28 29 29 29 30 30 29 28 30 31 31 31 29 28 27 26 24 23 23 21 22 23 22 21 21 22 22 22 21 20 20 20 20 18 17 18 19 18 18 18 17 17 17 17 18 19 19 19 18 18 18 16 15 15 15 13 11 12 12 10 8 7 6 5 4 3 3 3 4 5 6 8 8 7 6 4 2 1 1 2 3 2 1
27 27 27 27 27 27 28 28 28 26 28 30 31 31 30 28 28 27 25 23 21 19 19 21 21 21 21 21 21 21 20 20 18 19 19 18 18 18 19 19 19 18 17 17 16 17 19 19 19 19 19 19 19 17 15 15 15 14 12 11 11 10 7 5 7 8 6 4 4 3 5 5 5 6 6 6 5 2 1 0 1 1 1 1 1
24 26 26 25 25 26 26 26 26 25 26 28 29 30 30 29 28 28 26 24 22 20 20 21 21 21 21 21 20 20 20 19 17 17 17 17 18 20 19 18 17 18 18 18 17 18 19 19 18 19 18 18 18 16 15 15 14 13 13 12 12 12 11 8 9 12 9 5 4 3 6 7 7 6 3 3 5 4 2 1 0 1 2 2 2
Wind_Direction
172 171 164 164 170 164 168 167 167 160 151 146 140 138 136 133 133 134 130 127 127 125 123 121 119 115 113 112 113 112 112 114 115 116 117 118 116 115 115 118 117 113 114 113 111 110 110 111 112 113 113 112 111 112 112 111 108 106 107 108 108 109 108 109 108 105 104 102 101 99 100 106 108 109 109 106 104 104 105 108 110 109 103 99 100
170 169 165 167 172 169 171 171 173 166 157 149 141 139 136 134 134 134 129 129 131 129 128 125 124 119 117 116 117 115 115 119 118 118 119 119 118 119 119 117 115 114 116 115 115 114 113 113 113 115 117 119 120 120 117 112 110 110 110 109 110 111 112 111 108 105 104 103 104 103 102 108 113 111 110 108 107 106 105 107 106 99 99 104 106
166 168 169 169 173 172 174 174 174 167 157 147 138 134 133 132 134 134 130 132 132 131 133 130 127 122 121 121 120 117 118 123 121 122 122 121 122 122 120 117 116 116 116 114 114 113 113 112 111 112 115 118 123 127 123 116 112 114 114 112 113 113 115 113 109 107 106 105 106 108 107 109 114 113 111 109 108 107 104 101 100 103 108 110 110
166 168 171 170 173 173 172 169 165 161 155 148 140 135 134 133 135 136 134 135 134 135 136 133 130 126 124 125 123 119 121 125 124 125 125 124 124 124 123 121 119 119 117 115 113 113 113 112 111 110 113 114 122 130 132 131 124 116 114 113 115 117 118 116 111 107 106 106 106 109 113 115 114 112 111 110 108 106 103 102 104 109 109 107 107
170 169 172 170 173 172 169 164 156 158 157 153 147 142 140 137 138 138 139 138 136 138 138 136 133 129 127 128 126 122 125 127 127 129 128 128 127 126 126 123 123 123 120 118 115 115 113 112 112 110 111 110 119 129 134 139 134 121 119 119 116 119 120 115 109 107 107 107 107 108 114 115 113 112 113 111 110 108 105 106 106 106 104 103 103
172 170 174 172 174 172 169 165 159 160 159 156 152 148 146 142 143 142 143 142 140 142 142 141 136 134 132 132 131 130 131 131 133 132 131 130 129 129 129 127 127 128 124 122 118 117 114 111 111 111 111 109 114 123 130 136 136 130 130 129 118 118 121 116 112 110 109 109 110 109 112 114 116 116 115 114 112 112 110 108 105 103 105 105 106
172 171 176 175 174 172 170 168 165 162 158 158 155 152 150 147 147 146 146 146 146 147 146 143 139 138 134 135 139 136 134 137 139 136 135 132 130 131 131 130 132 132 128 125 124 122 116 109 108 110 111 112 117 121 126 129 131 132 133 133 124 122 124 124 116 107 114 117 114 111 114 119 122 120 118 117 117 116 115 111 106 104 108 107 106
175 174 176 176 175 172 170 170 167 163 159 159 158 155 153 150 149 150 151 151 150 149 149 146 143 142 135 136 140 136 137 142 141 138 137 134 133 134 133 133 134 135 132 129 128 126 116 105 101 107 112 115 124 128 129 125 124 128 130 131 130 129 130 137 123 100 125 126 120 118 119 123 121 120 120 121 121 120 117 114 110 108 110 108 105
179 176 176 176 174 172 172 171 168 164 160 159 159 157 155 152 151 154 155 153 152 153 152 150 148 144 135 135 137 134 138 143 141 139 137 136 137 136 135 135 135 138 138 135 133 128 116 106 100 108 119 120 126 132 134 129 126 127 129 131 131 131 135 153 168 174 150 139 134 129 125 125 122 123 127 126 124 121 120 118 114 116 116 112 113
177 175 176 175 173 172 172 171 168 164 161 160 159 158 158 154 154 158 159 156 155 157 155 156 153 145 140 138 138 136 138 143 144 142 139 140 141 139 140 138 137 139 138 138 139 134 124 112 104 114 127 127 128 133 134 132 130 130 132 131 128 128 124 137 177 193 176 166 161 144 135 134 131 131 133 130 126 124 122 118 117 120 118 113 119
167 171 175 175 172 169 170 171 168 164 162 163 162 160 160 156 156 160 160 160 160 160 156 159 156 148 146 144 142 139 140 145 147 145 144 146 145 144 143 141 139 138 138 139 141 144 141 118 109 122 136 135 133 134 133 133 133 134 131 122 113 91 80 111 160 179 179 180 179 155 142 141 135 133 137 133 128 126 120 114 118 120 119 120 122
160 169 171 173 170 168 170 170 169 167 165 164 165 164 163 159 160 163 164 165 165 164 159 161 160 153 152 151 148 145 147 150 150 149 149 150 149 148 147 146 143 141 142 142 145 152 147 125 117 130 145 146 141 138 136 137 136 132 120 105 84 61 81 132 158 168 167 172 174 158 145 143 137 135 140 136 130 129 121 117 123 121 122 126 126
158 163 161 169 170 169 172 170 172 170 169 168 167 167 166 162 164 167 168 170 171 171 165 164 164 160 158 156 152 150 152 152 154 154 155 155 153 152 151 152 150 148 147 148 154 158 147 133 129 134 148 155 149 145 143 141 135 125 114 90 57 56 90 148 162 165 163 165 165 155 148 147 144 141 143 141 139 136 128 130 134 129 130 133 130
157 157 155 168 172 177 181 177 179 176 174 172 170 171 168 166 168 170 173 174 175 175 171 167 166 167 165 160 156 154 155 154 155 157 158 159 158 157 157 160 157 153 151 157 167 160 149 141 141 142 147 157 157 153 149 141 132 122 110 69 51 63 94 146 161 168 167 167 161 153 145 145 148 148 150 151 149 141 136 142 142 137 139 141 139
161 165 170 178 178 182 187 183 181 179 174 172 173 173 171 171 174 176 179 178 177 178 174 169 169 171 168 164 161 158 158 157 157 160 162 163 164 163 164 168 166 161 156 162 178 163 154 148 148 151 147 156 161 161 156 145 140 128 103 56 57 72 97 142 163 173 174 171 162 150 127 128 143 149 153 159 160 153 147 147 147 144 147 151 152
171 180 183 183 181 181 184 181 176 176 172 173 176 176 176 177 180 181 183 182 180 179 174 170 172 174 170 168 166 162 162 160 161 164 166 168 168 169 173 176 173 170 161 165 189 172 159 156 152 157 155 159 163 166 165 160 157 141 101 63 67 74 89 144 173 179 180 176 165 149 118 127 144 152 155 162 169 167 157 153 153 150 153 157 156
185 190 187 182 182 178 179 178 174 177 176 178 181 181 181 182 182 182 182 182 181 179 174 172 174 176 172 170 169 165 165 164 165 169 169 171 172 175 180 183 180 176 170 181 198 185 171 167 159 163 165 168 166 163 164 169 175 158 127 76 66 61 68 128 186 188 187 181 169 155 128 138 153 157 153 158 166 168 165 162 162 158 157 156 154
191 189 183 178 181 179 178 178 177 181 182 182 185 186 186 184 183 182 181 180 179 177 174 174 175 178 175 172 172 169 168 168 170 171 172 174 174 181 186 189 188 184 185 195 202 196 186 179 169 170 173 179 175 163 161 168 186 183 154 80 50 38 45 87 197 198 195 189 175 169 145 148 159 159 153 155 161 166 170 171 169 166 164 159 158
187 185 178 176 182 184 182 181 180 183 186 186 186 187 187 187 184 182 181 179 179 175 174 176 176 180 180 174 175 173 171 172 173 174 175 177 177 185 194 197 198 193 192 200 206 200 190 185 183 178 177 184 181 165 156 152 179 186 147 58 27 22 20 7 207 204 201 195 188 184 153 150 159 162 159 157 161 165 171 175 173 173 173 167 165
184 187 181 178 184 188 186 185 185 187 190 188 186 186 188 189 186 183 181 180 178 175 175 176 177 183 183 176 177 177 174 175 176 178 178 179 182 188 201 208 209 202 194 200 207 198 189 190 192 188 184 183 181 165 144 125 136 143 149 7 9 22 19 0 203 205 204 198 201 197 164 158 164 166 164 162 168 172 174 179 182 183 182 179 175
187 191 186 182 184 189 189 189 188 190 193 189 187 187 187 188 186 184 182 181 178 176 176 176 178 182 181 177 180 179 176 178 180 181 180 181 186 190 205 214 216 207 194 201 208 196 188 194 197 195 191 182 181 170 140 126 129 132 214 349 7 26 25 28 191 202 201 203 212 202 182 181 177 172 169 167 173 179 184 187 187 189 186 182 183
191 192 190 185 183 187 190 191 190 192 194 191 189 187 186 187 187 184 182 182 178 176 176 178 182 181 179 181 184 183 180 181 183 182 182 184 188 193 205 215 219 212 198 205 208 196 191 196 201 198 194 187 184 177 143 127 133 138 315 7 23 27 19 23 184 198 198 206 220 198 193 200 191 178 174 173 177 183 190 192 189 193 194 195 195
190 191 192 187 186 188 189 191 192 193 194 193 193 189 186 189 188 185 183 182 180 177 177 180 184 181 180 184 187 189 186 185 186 184 185 186 188 195 204 211 217 216 201 202 199 192 193 198 202 200 197 194 188 184 149 128 132 133 114 87 47 8 3 2 232 205 210 215 218 202 203 209 201 186 179 178 182 188 192 194 193 197 205 209 205
190 192 193 188 188 190 190 191 193 193 194 195 194 191 190 190 190 187 186 183 181 180 180 182 186 185 184 187 190 192 191 190 189 187 189 189 187 196 205 207 211 213 197 189 187 187 192 198 202 201 200 203 200 197 178 157 151 156 137 95 41 337 340 335 282 218 226 228 220 213 208 210 206 198 188 183 185 191 194 196 198 202 211 217 209
190 193 193 188 189 193 192 190 193 194 194 197 194 193 194 193 191 190 190 187 184 182 183 186 190 191 188 188 191 193 194 192 192 192 191 190 188 194 204 206 204 207 196 183 183 185 192 198 204 206 207 212 214 214 211 216 219 222 258 252 355 307 298 307 296 238 231 228 226 222 213 213 212 206 198 193 191 192 195 195 202 210 216 224 217
191 193 195 192 191 193 193 191 196 196 195 199 197 196 197 196 193 191 193 191 187 184 186 191 193 195 190 188 190 193 195 193 195 196 193 191 191 195 202 206 201 201 196 183 183 189 197 203 209 214 215 223 226 226 228 236 243 246 256 250 238 261 270 287 292 256 232 227 236 254 240 233 223 211 207 203 193 191 195 199 209 215 218 225 221
193 195 199 195 192 192 192 194 198 199 196 198 199 198 199 199 194 191 194 192 189 187 190 194 196 196 191 189 191 192 194 195 198 198 194 193 195 197 199 204 200 196 194 187 190 195 203 209 215 219 222 232 236 236 238 241 246 252 255 252 244 246 257 272 280 259 234 235 269 312 303 271 236 215 212 208 197 196 202 208 215 217 219 226 230
195 197 201 197 194 193 193 196 200 202 199 199 200 198 200 200 194 192 194 194 193 192 193 194 196 199 194 192 192 194 196 198 201 201 197 196 198 199 198 204 200 194 192 190 196 201 210 217 222 225 228 233 239 244 245 245 248 257 262 256 246 245 256 263 268 250 233 247 284 312 321 293 249 220 216 210 201 202 207 212 213 217 224 230 235
197 198 201 199 196 194 194 197 201 203 201 201 200 198 201 200 196 195 194 195 197 196 195 192 195 200 198 195 194 196 200 203 205 203 202 201 201 200 199 202 198 192 191 191 200 208 215 223 225 226 230 235 243 248 251 256 257 261 265 257 247 247 252 252 250 236 232 251 276 302 324 301 260 224 220 213 203 205 210 214 214 219 229 232 237
201 201 201 200 198 196 196 199 202 204 203 202 201 200 201 201 200 200 197 196 199 199 196 193 196 198 197 197 195 198 205 208 208 206 206 206 204 203 202 199 196 193 193 195 203 214 219 229 237 235 239 246 256 271 276 273 269 271 271 258 248 250 251 249 242 234 236 248 265 289 316 300 271 230 227 222 211 210 214 217 217 223 230 232 236
199 200 202 201 198 197 198 200 203 206 205 202 202 201 203 204 202 202 200 199 199 201 200 196 198 199 198 197 195 197 206 212 212 208 207 209 208 207 204 201 203 202 203 206 211 225 235 248 259 258 260 263 275 295 293 279 275 274 260 246 249 255 254 245 235 238 244 245 256 273 288 288 281 252 236 231 225 220 221 223 222 225 230 234 238
195 199 201 202 199 198 199 201 204 207 207 205 203 203 206 206 203 202 202 201 200 202 204 203 203 203 200 200 199 199 204 209 212 210 209 210 209 210 212 214 216 215 215 219 222 234 246 254 263 267 271 269 271 295 290 244 246 232 210 220 275 263 242 228 224 236 245 243 249 261 270 272 282 280 249 239 235 229 228 228 226 228 231 237 242
194 198 200 201 200 200 200 202 205 207 209 209 207 207 209 207 203 202 201 201 202 204 206 208 209 206 203 202 203 203 203 205 209 211 212 211 211 217 225 229 229 229 229 229 232 238 240 236 237 248 255 240 230 218 130 169 187 185 193 220 254 205 203 208 218 230 235 241 247 256 265 267 279 285 265 249 241 237 235 231 229 231 233 236 240
192 193 198 200 201 201 200 201 204 207 209 209 209 210 209 206 202 201 200 201 203 206 210 212 213 210 206 205 206 208 206 204 208 211 211 209 212 221 230 233 230 234 239 238 240 239 228 219 220 230 228 214 220 224 197 172 168 181 195 202 216 231 206 204 216 217 216 232 244 253 260 265 275 278 270 262 251 246 242 238 235 235 237 238 238
189 190 196 198 200 202 200 200 203 206 208 208 209 210 208 203 201 200 201 202 205 209 213 215 215 211 208 208 208 211 210 205 206 210 212 211 213 217 217 218 215 220 232 237 238 230 220 221 225 231 230 229 240 243 256 263 248 256 269 262 254 251 246 229 223 214 205 215 228 242 251 260 269 273 271 268 261 257 252 250 247 246 247 246 245
190 190 193 195 198 200 201 201 201 203 204 205 208 210 207 203 202 203 204 207 210 213 216 216 215 211 209 209 209 210 210 209 208 211 216 216 216 217 206 200 201 207 218 225 222 216 215 225 226 224 228 237 250 237 240 259 258 266 279 276 262 246 252 248 227 225 218 212 216 231 246 257 264 268 268 267 266 264 260 258 256 256 256 255 255
192 190 190 193 196 199 201 201 201 202 202 204 207 208 206 204 204 206 208 211 214 216 218 217 214 211 208 209 210 210 209 211 212 214 220 219 218 220 213 204 204 208 215 219 217 215 217 220 215 217 226 237 246 231 230 246 249 255 260 261 261 256 256 252 231 222 214 209 213 228 243 253 261 265 265 263 263 264 263 262 260 259 261 261 261
191 190 190 194 198 200 201 201 202 202 203 205 208 210 209 207 207 210 211 213 216 219 221 221 216 211 210 211 212 213 213 212 212 213 219 219 219 223 221 214 211 206 205 210 211 212 213 213 213 215 223 234 232 217 219 237 244 251 253 256 262 257 251 250 238 220 211 207 209 222 235 240 248 256 259 259 260 262 262 261 258 255 256 260 261
188 189 191 194 198 200 200 200 200 201 203 206 208 210 212 211 209 211 213 214 216 219 221 222 219 214 215 216 216 217 218 217 214 213 214 216 219 222 219 215 213 204 192 195 198 200 201 203 210 215 224 235 235 222 211 231 242 246 252 263 270 272 265 252 237 228 223 215 211 215 227 230 234 241 250 256 258 262 262 260 258 256 256 258 259
186 187 189 192 195 196 196 198 199 200 201 203 205 206 208 208 208 209 212 213 214 217 218 220 220 217 217 218 217 218 221 220 217 214 213 212 215 216 214 214 215 207 192 193 199 206 206 207 211 217 228 233 235 234 218 220 228 224 236 260 272 287 285 267 249 238 233 227 222 221 227 233 235 239 250 260 263 265 263 261 261 261 264 265 260
183 185 187 190 192 192 193 195 197 199 199 200 201 202 202 201 203 205 207 209 211 213 216 218 220 218 217 217 215 217 220 219 217 216 214 214 214 213 214 219 221 217 208 201 202 212 218 219 216 219 230 232 230 231 225 211 209 208 216 243 265 279 281 269 255 243 240 238 235 235 235 234 237 243 253 261 263 263 262 266 269 265 266 268 261
181 185 188 189 189 191 193 195 197 199 200 201 200 200 200 200 200 201 202 205 208 209 212 216 219 218 218 215 213 215 216 215 216 217 217 218 218 217 220 226 228 225 221 214 209 212 218 221 220 223 229 230 226 225 223 210 200 197 191 220 283 281 270 256 248 246 245 242 242 244 240 234 237 243 247 254 260 262 262 267 274 272 274 274 263
181 185 188 188 187 189 192 194 196 198 201 202 200 199 200 201 201 200 199 201 206 210 212 215 218 219 221 219 216 215 215 217 219 219 220 221 222 224 229 234 232 229 228 223 220 219 220 222 226 229 223 218 217 220 220 215 200 175 136 74 301 304 289 259 245 244 243 245 246 246 242 237 239 243 244 251 259 262 263 266 270 274 283 278 262
181 183 186 186 187 190 193 194 195 198 200 202 202 201 200 199 201 203 203 202 206 210 214 216 218 220 222 221 220 217 218 221 223 223 223 223 224 227 234 240 234 231 232 229 228 228 228 226 228 228 218 208 205 210 214 216 210 190 138 82 110 78 315 274 254 244 239 243 245 241 244 244 241 242 244 252 261 264 267 270 271 274 281 276 263
182 186 187 187 189 191 194 195 195 198 201 204 204 201 198 194 196 200 202 203 206 208 210 212 214 218 221 220 219 219 220 224 225 226 226 226 228 228 233 235 229 226 228 230 235 238 235 232 231 229 221 213 208 206 211 216 216 212 197 157 104 87 239 252 297 275 242 244 243 233 239 247 246 245 247 259 270 270 269 272 275 277 276 272 270
187 190 190 190 191 192 194 195 196 198 202 204 202 200 198 195 192 190 190 194 199 203 206 208 210 215 219 219 219 220 222 224 226 227 227 227 228 227 227 226 221 220 226 228 231 238 239 236 235 234 228 223 218 210 209 213 215 217 212 209 222 219 195 194 230 313 288 267 234 227 236 244 247 248 251 263 271 267 265 269 280 280 266 259 257
190 192 192 193 193 194 195 196 197 198 200 201 199 198 198 197 197 195 191 192 195 201 206 209 212 216 218 219 220 222 224 226 227 227 225 226 226 224 225 225 223 221 226 230 229 233 239 239 239 240 236 232 228 221 217 217 217 220 221 222 227 222 200 186 190 192 317 294 239 235 243 240 244 253 256 260 267 270 267 265 287 301 288 276 265
188 190 193 195 196 197 197 198 199 199 199 199 197 197 198 199 200 200 198 197 199 203 206 209 214 216 216 218 220 223 225 226 226 225 224 225 225 225 225 225 227 225 226 232 232 232 238 241 242 243 240 237 235 233 229 225 222 220 219 219 222 223 218 223 231 196 150 261 274 259 245 238 247 260 261 262 269 276 273 271 319 336 337 326 301
185 189 194 197 197 198 199 200 201 200 199 198 198 198 200 201 201 201 201 201 201 203 206 209 213 214 215 217 219 222 224 224 225 224 225 226 225 227 226 225 229 229 227 231 233 235 240 242 243 244 244 243 241 240 237 235 231 224 217 215 215 219 226 232 233 216 186 197 248 261 246 244 256 261 260 260 259 268 272 241 329 339 346 336 272
188 190 192 196 197 196 198 200 202 202 201 199 198 199 201 201 202 202 202 201 201 202 204 208 211 213 215 217 220 222 222 223 223 224 227 228 226 226 224 224 228 230 229 232 234 237 242 244 245 247 248 247 243 240 239 240 235 227 221 216 206 200 205 215 215 213 208 212 229 244 245 244 255 264 257 239 230 246 300 206 195 325 32 62 159
190 190 190 192 194 195 196 199 202 204 204 202 200 201 202 202 204 205 205 204 201 199 200 205 209 212 215 219 222 223 222 222 221 222 225 225 225 225 221 221 226 228 231 234 234 237 243 244 244 246 248 247 243 239 239 240 234 227 225 223 214 204 202 208 211 210 207 208 211 229 240 236 242 258 251 205 210 230 284 326 283 30 64 84 82